Lubbock, TX

12:10 PM CST on November 22, 2019 (GMT -0600)
Lubbock International

Weather History for KLBB - October, 2019

Change the Weather History Date:

Saturday, October 12, 2019

  Actual Average Record
Temperature  
Mean Temperature 48 °F 63 °F  
Max Temperature 66 °F 77 °F 92 °F (1989)
Min Temperature 31 °F 49 °F 33 °F (1927)
Degree Days  
Heating Degree Days 16 4  
Month to date heating degree days 55 38  
Since 1 July heating degree days 55 61  
Cooling Degree Days 0 2  
Month to date cooling degree days 46 33  
Year to date cooling degree days 2147 1782  
Moisture  
Dew Point 23 °F    
Average Humidity 38    
Maximum Humidity 73    
Minimum Humidity 17    
Precipitation  
Precipitation 0.00 in 0.07 in 2.48 in (1937)
Month to date precipitation 1.09 0.83  
Year to date precipitation 22.65 16.41  
Snow  
Snow 0.00 in 0.00 in T in (1986)
Month to date snowfall 0.0 0.0  
Since 1 July snowfall 0.0 0.0  
Since 1 September snowfall 0.0 0.0  
Snow Depth 0.00 in    
Sea Level Pressure  
Sea Level Pressure 30.11 in    
Wind  
Wind Speed 9 mph ()    
Max Wind Speed 23 mph    
Max Gust Speed 31 mph    
Visibility 10.0 miles    
Events      
T = Trace of Precipitation, MM = Missing Value Source: Averaged Metar Reports

Daily Weather History Graph

Daily Weather History Graph

Search for Another Location

Airport or City:

Astronomy

Oct. 12, 2019 Rise Set
Actual Time 7:49 AM CDT 7:17 PM CDT
Civil Twilight 7:24 AM CDT 7:42 PM CDT
Nautical Twilight 6:55 AM CDT 8:11 PM CDT
Astronomical Twilight 6:26 AM CDT 8:40 PM CDT
Moon 7:08 PM CDT (10/12) 6:36 AM CDT (10/12)
Length of Visible Light 12h 17m
Length of Day
11h 27m
Waxing Gibbous, 99% of the Moon is Illuminated
Oct 12
Waxing Gibbous
Oct 13
Full
Oct 21
Last Quarter
Oct 27
New
Nov 4
First Quarter

Hourly Weather History & Observations

Time (CDT) Temp. Windchill Dew Point Humidity Pressure Visibility Wind Dir Wind Speed Gust Speed Precip Events Conditions
12:53 AM 42.1 °F 36.6 °F 21.9 °F 45% 30.28 in 10.0 mi South 9.2 mph - N/A   Clear
1:53 AM 39.9 °F 33.9 °F 21.9 °F 49% 30.27 in 10.0 mi South 9.2 mph - N/A   Clear
2:53 AM 37.0 °F 30.4 °F 23.0 °F 57% 30.26 in 10.0 mi South 9.2 mph - N/A   Clear
3:53 AM 37.9 °F 34.4 °F 21.9 °F 53% 30.24 in 10.0 mi SSW 4.6 mph - N/A   Clear
4:53 AM 36.0 °F 32.1 °F 23.0 °F 59% 30.23 in 10.0 mi SW 4.6 mph - N/A   Clear
5:53 AM 35.1 °F 29.3 °F 21.9 °F 59% 30.23 in 10.0 mi SW 6.9 mph - N/A   Clear
6:53 AM 34.0 °F 31.0 °F 21.9 °F 61% 30.23 in 10.0 mi West 3.5 mph - N/A   Clear
7:53 AM 32.0 °F 27.5 °F 24.1 °F 73% 30.24 in 10.0 mi NW 4.6 mph - N/A   Clear
8:53 AM 37.9 °F 34.4 °F 27.0 °F 65% 30.23 in 10.0 mi WSW 4.6 mph - N/A   Partly Cloudy
9:53 AM 48.9 °F - 19.9 °F 32% 30.21 in 10.0 mi SSW 12.7 mph - N/A   Partly Cloudy
10:53 AM 53.1 °F - 19.9 °F 27% 30.20 in 10.0 mi SSW 11.5 mph - N/A   Partly Cloudy
11:53 AM 57.0 °F - 21.0 °F 25% 30.17 in 10.0 mi SSW 13.8 mph - N/A   Partly Cloudy
12:53 PM 60.1 °F - 19.0 °F 20% 30.13 in 10.0 mi South 13.8 mph - N/A   Partly Cloudy
1:53 PM 63.0 °F - 18.0 °F 18% 30.09 in 10.0 mi SW 16.1 mph - N/A   Clear
2:53 PM 64.0 °F - 19.0 °F 18% 30.04 in 10.0 mi SW 17.3 mph - N/A   Clear
3:53 PM 64.9 °F - 21.0 °F 19% 30.00 in 10.0 mi SSW 18.4 mph 24.2 mph N/A   Partly Cloudy
4:53 PM 66.0 °F - 24.1 °F 20% 29.98 in 10.0 mi SSW 16.1 mph - N/A   Partly Cloudy
5:53 PM 64.9 °F - 24.1 °F 21% 29.96 in 10.0 mi SSW 16.1 mph - N/A   Partly Cloudy
6:53 PM 63.0 °F - 21.9 °F 21% 29.96 in 10.0 mi South 13.8 mph 23.0 mph N/A   Partly Cloudy
7:53 PM 57.9 °F - 25.0 °F 28% 29.98 in 10.0 mi South 9.2 mph - N/A   Clear
8:53 PM 55.9 °F - 28.0 °F 34% 29.97 in 10.0 mi South 9.2 mph - N/A   Clear
9:53 PM 55.9 °F - 30.0 °F 37% 29.95 in 10.0 mi SSW 11.5 mph - N/A   Clear
10:53 PM 55.9 °F - 30.9 °F 39% 29.93 in 10.0 mi SSW 15.0 mph - N/A   Clear
11:53 PM 57.0 °F - 30.9 °F 37% 29.91 in 10.0 mi SSW 17.3 mph - N/A   Clear